Regional Weather Roundup
Issued by NWS Sioux Falls, SD

Home | Current Version | Previous Version | Text Only | Print | Product List | Glossary On
Versions: 1 2 3 4 5 6 7 8 9 10 11 12 13 14 15 16 17 18 19 20 21 22 23 24 25 26 27 28 29 30 31 32 33 34 35 36 37 38 39 40 41 42 43 44 45 46 47 48 49 50
325
ASUS43 KFSD 040902
RWRFSD

WEATHER ROUNDUP FOR SE SOUTH DAKOTA/SW MINNESOTA/NW IOWA
NATIONAL WEATHER SERVICE SIOUX FALLS SD
400 AM CDT WED MAY 04 2016

NOTE: "FAIR" INDICATES FEW OR NO CLOUDS BELOW 12,000 FEET WITH NO
SIGNIFICANT WEATHER AND OR OBSTRUCTIONS TO VISIBILITY.


SDZ038>040-050-052>070-041000-
SOUTHEAST SOUTH DAKOTA

CITY           SKY/WX    TMP DP  RH WIND       PRES   REMARKS
CHAMBERLAIN    NOT AVBL
HURON          CLEAR     38  33  82 NW8       30.04R
MADISON        FAIR      45  32  61 N13       30.00R
MITCHELL       CLEAR     44  36  73 NW10      30.04R
SIOUX FALLS    CLEAR     46  32  58 N13       29.99R
WINNER         FAIR      45  38  76 W3        30.09R
YANKTON        CLEAR     43  36  75 NW10      30.00R
$$

MNZ071-072-080-081-089-090-097-098-041000-
SOUTHWEST MINNESOTA

CITY           SKY/WX    TMP DP  RH WIND       PRES   REMARKS
FAIRMONT       CLEAR     48  30  49 N12       29.90R
JACKSON        PTCLDY    45  32  61 N7        29.94R
LUVERNE        CLEAR     46  32  57 N8        29.97R
MARSHALL       CLEAR     45  32  60 NW10      29.98R
MONTEVIDEO     CLEAR     46  34  61 N8        30.00R
PIPESTONE      CLEAR     45  30  57 N5        29.97R
REDWOOD FALLS  CLEAR     47  31  53 N6        29.95R
TRACY          CLEAR     46  33  61 NW10      29.97R
WINDOM         CLEAR     45  32  61 NW13      29.94R
WORTHINGTON    CLEAR     43  34  70 NW10      29.96R
$$

IAZ001>003-012>014-020>022-031-032-NEZ013-014-SDZ071-041000-
NORTHWEST IOWA

CITY           SKY/WX    TMP DP  RH WIND       PRES   REMARKS
DENISON        CLEAR     48  36  61 N9        29.88R
ESTHERVILLE    CLEAR     45  34  65 N14       29.90R
SIOUX CITY     CLEAR     51  32  48 N10       29.95R
SPENCER        CLEAR     47  33  58 N14       29.92R
STORM LAKE     CLEAR     48  34  57 N14       29.91R
$$

ABBREVIATIONS USED IN REMARKS
   TC - TEMPERATURE IN CELSIUS
  WCI - WIND CHILL INDEX
   HX - HEAT INDEX
  VSB - VISIBILITY





USA.gov is the U.S. government's official web portal to all federal, state and local government web resources and services.